W7YP Weather Reports


time (UTC)temp
C
wind
direction
speed
KPH
gust
KPH
rain 1hr
cm
rain 24hr
cm
rain mn
cm
humidity
%
barometer
mb
20260831183323 18 11 0.0 3.2 0.00 0.18 0.00 56 1019.4
20260831182824 18 21 0.0 8.0 0.00 0.20 0.00 59 1019.4
20260831182545 18 11 0.0 8.0 0.00 0.23 0.00 57 1019.4
20260831181824 18 314 0.0 4.8 0.00 0.25 0.00 60 1019.5
20260831181324 18 309 0.0 6.4 0.00 0.28 0.00 59 1019.6
20260831180814 17 340 0.0 6.4 0.00 0.30 0.00 61 1019.7
20260831180312 17 314 1.6 4.8 0.00 0.30 0.00 61 1019.6
20260831175802 17 59 0.0 4.8 0.00 0.36 0.00 62 1019.7
20260831175521 17 269 0.0 4.8 0.00 0.38 0.00 64 1019.6
20260831174755 17 270 0.0 4.8 0.00 0.41 0.00 60 1019.8
20260831174249 17 213 0.0 0.0 0.00 0.43 0.00 61 1019.8
20260831173750 17 213 0.0 0.0 0.00 0.46 0.00 63 1019.8
20260831173250 17 213 0.0 0.0 0.00 0.48 0.00 67 1019.8
20260831172748 17 213 0.0 1.6 0.00 0.53 0.00 72 1019.8
20260831172239 17 213 0.0 1.6 0.00 0.56 0.00 70 1019.8
20260831172218 17 203 0.0 1.6 0.00 0.58 0.00 74 1019.8
20260831171226 16 188 0.0 1.6 0.00 0.58 0.00 77 1019.8
20260831170715 16 188 0.0 1.6 0.00 0.61 0.00 75 1019.9
20260831170216 16 186 0.0 3.2 0.00 0.66 0.00 70 1019.9
20260831165717 16 186 0.0 3.2 0.00 0.69 0.00 70 1019.9
20260831165211 15 157 0.0 1.6 0.00 0.71 0.00 73 1019.9
20260831164937 15 157 0.0 1.6 0.00 0.74 0.00 74 1020.1
20260831164207 15 157 0.0 0.0 0.00 0.76 0.00 75 1019.9
20260831163706 15 157 0.0 1.6 0.00 0.79 0.00 78 1019.9
20260831163207 15 157 0.0 3.2 0.00 0.81 0.00 82 1019.9
20260831162707 15 158 0.0 3.2 0.00 0.84 0.00 80 1019.9
20260831162207 14 276 0.0 3.2 0.00 0.86 0.00 84 1019.9
20260831161935 13 277 0.0 0.0 0.00 0.86 0.00 87 1020.1
20260831161203 13 277 0.0 0.0 0.00 0.89 0.00 90 1019.9
20260831160703 13 277 0.0 3.2 0.00 0.91 0.00 92 1020.1
20260831160203 12 277 0.0 3.2 0.00 0.91 0.00 95 1019.9
20260831155703 12 277 0.0 3.2 0.00 0.94 0.00 96 1020.1
20260831155203 12 278 0.0 1.6 0.00 0.97 0.00 97 1020.1
20260831154900 12 278 0.0 3.2 0.00 0.97 0.00 97 1020.2
20260831154413 11 277 0.0 3.2 0.00 0.97 0.00 98 1020.1
20260831153854 11 279 0.0 0.0 0.00 0.97 0.00 98 1019.9
20260831153134 11 279 0.0 3.2 0.00 0.97 0.00 98 1019.9
20260831152634 11 279 0.0 4.8 0.00 0.97 0.00 98 1020.1
20260831152137 11 292 0.0 4.8 0.00 0.97 0.00 98 1019.9
20260831151630 11 292 0.0 0.0 0.00 0.97 0.00 98 1020.1
20260831151124 11 292 0.0 0.0 0.00 0.99 0.00 98 1020.1
20260831150622 10 292 0.0 0.0 0.00 0.99 0.00 98 1019.9
20260831150109 10 292 0.0 0.0 0.00 0.99 0.00 98 1019.9
20260831145609 10 292 0.0 0.0 0.00 0.99 0.00 98 1019.8
20260831145055 10 292 0.0 0.0 0.00 0.99 0.00 98 1019.8
20260831144555 10 292 0.0 0.0 0.00 0.99 0.00 98 1019.8
20260831144050 10 292 0.0 0.0 0.00 0.99 0.00 98 1019.9
20260831143550 9 292 0.0 0.0 0.00 1.02 0.00 98 1019.8
20260831143040 9 292 0.0 0.0 0.00 1.02 0.00 98 1019.8
20260831142536 9 292 0.0 0.0 0.00 1.02 0.00 98 1019.7
20260831142254 9 292 0.0 0.0 0.00 1.04 0.00 98 1019.7
20260831141531 9 292 0.0 0.0 0.00 1.04 0.00 98 1019.6
20260831141030 8 292 0.0 0.0 0.00 1.04 0.00 98 1019.6
20260831140531 8 292 0.0 0.0 0.00 1.04 0.00 98 1019.5
20260831140030 8 292 0.0 0.0 0.00 1.04 0.00 98 1019.5
20260831140013 8 292 0.0 0.0 0.00 1.04 0.00 97 1019.5
20260831135035 8 292 0.0 0.0 0.00 1.04 0.00 97 1019.5
20260831134530 8 292 0.0 0.0 0.00 1.07 0.00 97 1019.4
20260831134027 8 292 0.0 0.0 0.00 1.07 0.00 97 1019.3
20260831133527 8 292 0.0 0.0 0.00 1.07 0.00 97 1019.3
20260831133017 8 292 0.0 0.0 0.00 1.09 0.00 97 1019.3
20260831132512 8 292 0.0 0.0 0.00 1.09 0.00 97 1019.3
20260831132012 8 292 0.0 0.0 0.00 1.09 0.00 97 1019.3
20260831131508 8 292 0.0 0.0 0.00 1.09 0.00 97 1019.3
20260831131008 8 292 0.0 0.0 0.00 1.09 0.00 97 1019.3
20260831130503 8 292 0.0 0.0 0.00 1.09 0.00 97 1019.3
20260831130004 8 292 0.0 0.0 0.00 1.09 0.00 97 1019.2
20260831125503 8 292 0.0 0.0 0.00 1.09 0.00 97 1019.2
20260831125004 8 292 0.0 0.0 0.00 1.09 0.00 97 1019.2
20260831124503 8 292 0.0 0.0 0.00 1.09 0.00 97 1019.1
20260831124002 8 292 0.0 0.0 0.00 1.09 0.00 97 1019.1
20260831123444 8 292 0.0 0.0 0.00 1.09 0.00 97 1019.1
20260831122939 8 292 0.0 0.0 0.00 1.09 0.00 97 1019.2
20260831122433 8 292 0.0 0.0 0.00 1.09 0.00 97 1019.1
20260831121936 8 292 0.0 0.0 0.00 1.09 0.00 97 1019.1
20260831121429 8 292 0.0 0.0 0.00 1.09 0.00 97 1019.1
20260831120932 8 292 0.0 0.0 0.00 1.09 0.00 97 1018.9
20260831120419 8 292 0.0 0.0 0.00 1.09 0.00 97 1019.1
20260831115909 8 292 0.0 0.0 0.00 1.09 0.00 97 1018.9
20260831115407 8 292 0.0 0.0 0.00 1.09 0.00 97 1018.9
20260831115345 8 292 0.0 0.0 0.00 1.09 0.00 97 1018.9
20260831114354 8 292 0.0 0.0 0.00 1.09 0.00 97 1019.1
20260831113850 8 292 0.0 0.0 0.00 1.09 0.00 97 1018.9
20260831113339 8 292 0.0 0.0 0.00 1.09 0.00 97 1018.9
20260831112843 8 292 0.0 0.0 0.00 1.09 0.00 97 1018.8
20260831112551 8 292 0.0 0.0 0.00 1.09 0.00 97 1018.8
20260831111830 8 292 0.0 0.0 0.00 1.09 0.00 97 1018.8
20260831111551 8 292 0.0 0.0 0.00 1.09 0.00 97 1018.8
20260831110825 8 292 0.0 0.0 0.00 1.09 0.00 97 1018.7
20260831110325 8 292 0.0 0.0 0.00 1.09 0.00 97 1018.8
20260831105826 8 292 0.0 0.0 0.00 1.09 0.00 97 1018.8
20260831105329 8 292 0.0 0.0 0.00 1.09 0.00 97 1018.7
20260831104826 8 292 0.0 0.0 0.00 1.09 0.00 97 1018.6
20260831104322 8 292 0.0 0.0 0.00 1.09 0.00 97 1018.7
20260831103819 8 292 0.0 0.0 0.00 1.09 0.00 97 1018.8
20260831103316 8 292 0.0 0.0 0.00 1.09 0.00 97 1018.8
20260831103013 8 292 0.0 0.0 0.00 1.09 0.00 97 1018.8
20260831102251 8 292 0.0 0.0 0.00 1.09 0.00 97 1018.7
20260831101746 8 292 0.0 0.0 0.00 1.09 0.00 97 1018.6
20260831101247 8 292 0.0 0.0 0.00 1.09 0.00 97 1018.6
20260831100742 8 292 0.0 0.0 0.00 1.09 0.00 97 1018.6
20260831100233 8 292 0.0 0.0 0.00 1.09 0.00 97 1018.5
20260831095727 8 292 0.0 0.0 0.00 1.09 0.00 97 1018.5
20260831095227 8 292 0.0 0.0 0.00 1.09 0.00 97 1018.6
20260831094948 8 292 0.0 0.0 0.00 1.09 0.00 97 1018.5
20260831094448 8 292 0.0 0.0 0.00 1.09 0.00 97 1018.6
20260831093723 8 292 0.0 0.0 0.00 1.09 0.00 97 1018.6
20260831093223 8 292 0.0 0.0 0.00 1.09 0.00 97 1018.6
20260831092726 8 292 0.0 0.0 0.00 1.09 0.00 97 1018.6
20260831092706 8 292 0.0 0.0 0.00 1.09 0.00 97 1018.6
20260831091708 8 292 0.0 0.0 0.00 1.09 0.00 97 1018.6
20260831091208 8 292 0.0 0.0 0.00 1.09 0.00 97 1018.5
20260831090709 8 292 0.0 0.0 0.00 1.09 0.00 97 1018.5
20260831090436 8 292 0.0 0.0 0.00 1.09 0.00 97 1018.5
20260831085710 8 292 0.0 0.0 0.00 1.09 0.00 97 1018.5
20260831085210 8 292 0.0 0.0 0.00 1.09 0.00 97 1018.5
20260831084709 8 292 0.0 0.0 0.00 1.09 0.00 97 1018.4
20260831084159 8 292 0.0 0.0 0.00 1.09 0.00 97 1018.5
20260831083650 8 292 0.0 0.0 0.00 1.09 0.00 97 1018.4
20260831083153 8 292 0.0 0.0 0.00 1.09 0.00 97 1018.3
20260831082650 8 292 0.0 0.0 0.00 1.09 0.00 97 1018.3
20260831082145 8 292 0.0 0.0 0.00 1.09 0.00 97 1018.3
20260831081645 8 292 0.0 0.0 0.00 1.09 0.00 97 1018.3
20260831081141 8 292 0.0 0.0 0.00 1.09 0.00 97 1018.2
20260831080644 8 292 0.0 0.0 0.00 1.09 0.00 97 1018.1
20260831080353 8 292 0.0 0.0 0.00 1.09 0.00 97 1018.2
20260831075856 8 292 0.0 0.0 0.00 1.09 0.00 97 1018.1
20260831075131 8 292 0.0 0.0 0.00 1.09 0.00 97 1018.1
20260831074631 8 292 0.0 0.0 0.00 1.09 0.00 97 1018.1
20260831074126 8 292 0.0 0.0 0.00 1.09 0.00 97 1018.2
20260831073846 8 292 0.0 0.0 0.00 1.09 0.00 97 1018.3
20260831073117 8 292 0.0 0.0 0.00 1.09 0.00 97 1018.2
20260831072617 8 292 0.0 3.2 0.00 1.09 0.00 97 1018.1
20260831072120 8 292 0.0 3.2 0.00 1.09 0.00 97 1017.9
20260831071844 8 292 0.0 0.0 0.00 1.09 0.00 97 1017.8
20260831071108 8 292 0.0 0.0 0.00 1.09 0.00 97 1017.9
20260831070558 8 292 0.0 0.0 0.00 1.09 0.00 97 1017.9
20260831070056 8 292 0.0 0.0 0.00 1.09 0.00 97 1017.9
20260831065545 8 292 0.0 0.0 0.00 1.09 0.00 97 1018.2
20260831065246 8 292 0.0 0.0 0.00 1.09 0.00 97 1018.2
20260831064528 8 292 0.0 0.0 0.00 1.09 0.00 97 1018.2
20260831064028 8 292 0.0 0.0 0.00 1.09 0.00 97 1018.2
20260831063750 8 292 0.0 0.0 0.00 1.09 0.00 97 1018.2
20260831063019 8 292 0.0 0.0 0.00 1.09 0.00 97 1018.2
20260831062518 8 292 0.0 0.0 0.00 1.09 0.00 97 1018.3
20260831062014 8 292 0.0 0.0 0.00 1.09 0.00 97 1018.3
20260831061509 8 292 0.0 0.0 0.00 1.09 0.00 97 1018.3
20260831061003 8 292 0.0 0.0 0.00 1.09 0.00 97 1018.3
20260831060459 8 292 0.0 0.0 0.00 1.09 0.00 97 1018.2
20260831060002 8 292 0.0 0.0 0.00 1.09 1.09 97 1018.3
20260831055454 8 292 0.0 0.0 0.00 1.09 1.09 97 1018.5
20260831054954 8 292 0.0 0.0 0.00 1.09 1.09 97 1018.5
20260831054713 8 292 0.0 1.6 0.00 1.09 1.09 97 1018.5
20260831053949 8 292 0.0 1.6 0.00 1.09 1.09 97 1018.6
20260831053447 8 292 0.0 4.8 0.00 1.09 1.09 97 1018.6
20260831052945 9 292 0.0 4.8 0.00 1.09 1.09 97 1018.6
20260831052445 9 292 0.0 0.0 0.00 1.09 1.09 97 1018.7
20260831052207 8 292 0.0 0.0 0.00 1.09 1.09 97 1018.6
20260831051927 8 292 0.0 0.0 0.00 1.09 1.09 97 1018.6
20260831050933 8 292 0.0 0.0 0.00 1.09 1.09 97 1018.7
20260831050431 8 292 0.0 0.0 0.00 1.09 1.09 97 1018.7
20260831045926 8 292 0.0 0.0 0.00 1.09 1.09 97 1018.8
20260831045421 8 292 0.0 0.0 0.00 1.09 1.09 97 1018.9
20260831044916 8 292 0.0 0.0 0.00 1.09 1.09 97 1018.9
20260831044416 8 292 0.0 0.0 0.00 1.09 1.09 97 1018.8
20260831043917 8 292 0.0 0.0 0.00 1.09 1.09 97 1018.7
20260831043634 8 292 0.0 0.0 0.00 1.09 1.09 97 1018.7
20260831042911 8 292 0.0 0.0 0.00 1.09 1.09 97 1018.7
20260831042406 8 292 0.0 0.0 0.00 1.09 1.09 97 1018.7
20260831041903 8 292 0.0 0.0 0.00 1.09 1.09 97 1018.7
20260831041631 8 292 0.0 1.6 0.00 1.09 1.09 97 1018.6
20260831040857 8 292 0.0 1.6 0.00 1.09 1.09 97 1018.6
20260831040628 8 292 0.0 0.0 0.00 1.09 1.09 97 1018.5
20260831035843 8 292 0.0 0.0 0.00 1.09 1.09 97 1018.6
20260831035829 8 292 0.0 0.0 0.00 1.09 1.09 97 1018.7
20260831034828 8 292 0.0 0.0 0.00 1.09 1.09 97 1018.6
20260831034328 8 292 0.0 0.0 0.00 1.09 1.09 97 1018.6
20260831033823 8 292 0.0 0.0 0.00 1.09 1.09 96 1018.5
20260831033323 8 292 0.0 0.0 0.00 1.09 1.09 96 1018.5
20260831033045 8 292 0.0 3.2 0.00 1.09 1.09 96 1018.5
20260831032323 8 292 0.0 3.2 0.00 1.09 1.09 96 1018.5
20260831032038 8 292 0.0 0.0 0.00 1.09 1.09 96 1018.6
20260831031309 9 292 0.0 0.0 0.00 1.09 1.09 96 1018.4
20260831030804 9 292 0.0 0.0 0.00 1.09 1.09 96 1018.4
20260831030254 9 292 0.0 0.0 0.00 1.09 1.09 96 1018.4
20260831030024 9 292 0.0 0.0 0.00 1.09 1.09 96 1018.3
20260831025511 9 292 0.0 0.0 0.00 1.09 1.09 96 1018.3
20260831024745 9 292 0.0 0.0 0.00 1.09 1.09 96 1018.2
20260831024244 9 292 0.0 0.0 0.00 1.09 1.09 96 1018.2
20260831023742 9 292 0.0 0.0 0.00 1.09 1.09 96 1018.2
20260831023235 9 292 0.0 0.0 0.00 1.09 1.09 96 1018.1
20260831022735 9 292 0.0 0.0 0.00 1.09 1.09 96 1017.9
20260831022238 9 292 0.0 0.0 0.00 1.09 1.09 96 1017.8
20260831021714 9 292 0.0 0.0 0.00 1.09 1.09 96 1017.8
20260831021429 9 292 0.0 0.0 0.00 1.09 1.09 96 1017.8
20260831020934 9 292 0.0 0.0 0.00 1.09 1.09 96 1017.7
20260831020149 9 292 0.0 0.0 0.00 1.09 1.09 96 1017.7
20260831015914 9 292 0.0 0.0 0.00 1.09 1.09 96 1017.7
20260831015145 9 292 0.0 0.0 0.00 1.09 1.09 96 1017.7
20260831014648 9 292 0.0 0.0 0.00 1.09 1.09 96 1017.7
20260831014358 9 292 0.0 1.6 0.00 1.09 1.09 96 1017.7
20260831013640 9 292 0.0 1.6 0.00 1.09 1.09 96 1017.8
20260831013136 10 291 0.0 1.6 0.00 1.09 1.09 96 1017.8
20260831012636 10 292 0.0 0.0 0.00 1.09 1.09 96 1017.7
20260831012139 10 292 0.0 0.0 0.00 1.09 1.09 96 1017.7
20260831011631 10 292 0.0 0.0 0.00 1.09 1.09 96 1017.6
20260831011121 10 292 0.0 0.0 0.00 1.09 1.09 96 1017.7
20260831010844 10 292 0.0 0.0 0.00 1.09 1.09 96 1017.6
20260831010121 10 292 0.0 0.0 0.00 1.09 1.09 96 1017.6
20260831010109 10 292 0.0 0.0 0.00 1.09 1.09 96 1017.6
20260831005117 10 292 0.0 0.0 0.00 1.09 1.09 96 1017.6
20260831004606 10 292 0.0 0.0 0.00 1.09 1.09 96 1017.6
20260831004315 10 292 0.0 0.0 0.00 1.09 1.09 96 1017.6
20260831003556 10 292 0.0 0.0 0.00 1.09 1.09 96 1017.6
20260831003055 10 292 0.0 0.0 0.00 1.09 1.09 96 1017.6
20260831002542 10 292 0.0 0.0 0.00 1.09 1.09 96 1017.6
20260831002042 10 292 0.0 0.0 0.00 1.09 1.09 96 1017.6
20260831001805 10 292 0.0 0.0 0.00 1.09 1.09 96 1017.6
20260831001032 10 292 0.0 0.0 0.00 1.09 1.09 96 1017.5
20260831000532 10 292 0.0 1.6 0.00 1.09 1.09 96 1017.5
20260831000028 10 292 0.0 1.6 0.00 1.09 1.09 96 1017.4
20260830235522 10 292 0.0 0.0 0.00 1.09 1.09 96 1017.4
20260830235017 10 292 0.0 0.0 0.00 1.09 1.09 96 1017.4
20260830234513 10 292 0.0 0.0 0.00 1.09 1.09 96 1017.5
20260830234234 10 292 0.0 0.0 0.00 1.09 1.09 96 1017.5
20260830233513 10 292 0.0 0.0 0.00 1.09 1.09 96 1017.4
20260830233008 10 292 0.0 0.0 0.00 1.09 1.09 96 1017.4
20260830232503 10 292 0.0 0.0 0.00 1.09 1.09 96 1017.4
20260830232003 10 292 0.0 0.0 0.00 1.09 1.09 96 1017.5
20260830231506 10 292 0.0 1.6 0.00 1.09 1.09 96 1017.5
20260830231003 10 292 0.0 1.6 0.00 1.09 1.09 96 1017.5
20260830230459 10 292 0.0 0.0 0.00 1.09 1.09 96 1017.5
20260830225955 10 292 0.0 0.0 0.00 1.09 1.09 96 1017.4
20260830225454 10 292 0.0 0.0 0.00 1.09 1.09 96 1017.5
20260830225438 10 292 0.0 0.0 0.00 1.09 1.09 96 1017.5
20260830224450 10 292 0.0 0.0 0.00 1.09 1.09 96 1017.6
20260830223949 10 292 0.0 0.0 0.00 1.09 1.09 96 1017.5
20260830223450 10 292 0.0 0.0 0.00 1.09 1.09 96 1017.6
20260830222939 10 292 0.0 0.0 0.00 1.09 1.09 96 1017.7
20260830222430 10 292 0.0 0.0 0.00 1.09 1.09 96 1017.7
20260830221930 10 292 0.0 0.0 0.00 1.09 1.09 96 1017.7
20260830221428 10 292 0.0 0.0 0.00 1.09 1.09 96 1017.7
20260830220926 10 292 0.0 0.0 0.00 1.09 1.09 96 1017.6
20260830220635 9 292 0.0 0.0 0.00 1.09 1.09 96 1017.7
20260830215906 9 292 0.0 0.0 0.00 1.09 1.09 96 1017.7
20260830215400 10 292 0.0 0.0 0.00 1.09 1.09 96 1017.7
20260830214904 10 292 0.0 0.0 0.00 1.09 1.09 96 1017.7
20260830214402 9 292 0.0 0.0 0.00 1.09 1.09 96 1017.6
20260830213901 9 292 0.0 0.0 0.00 1.09 1.09 96 1017.8
20260830213616 9 292 0.0 0.0 0.00 1.09 1.09 96 1017.7
20260830212857 9 292 0.0 3.2 0.00 1.09 1.09 96 1017.7
20260830212352 9 292 0.0 4.8 0.00 1.09 1.09 96 1017.6
20260830211855 9 292 1.6 4.8 0.00 1.09 1.09 96 1017.7
20260830211344 9 355 0.0 0.0 0.00 1.09 1.09 96 1017.7
20260830210834 9 355 0.0 0.0 0.00 1.09 1.09 96 1017.8
20260830210316 9 355 0.0 0.0 0.00 1.09 1.09 95 1017.7
20260830205815 9 355 0.0 0.0 0.00 1.09 1.09 95 1017.6
20260830205257 9 355 0.0 0.0 0.00 1.09 1.09 95 1017.6
20260830204757 9 355 0.0 0.0 0.00 1.09 1.09 95 1017.7
20260830204247 9 355 0.0 0.0 0.00 1.09 1.09 95 1017.4
20260830203746 9 355 0.0 0.0 0.00 1.09 1.09 95 1017.4
20260830203250 9 355 0.0 0.0 0.03 1.09 1.09 95 1017.4
20260830202745 9 355 0.0 1.6 0.03 1.09 1.09 95 1017.4
20260830202238 9 355 0.0 1.6 0.03 1.09 1.09 95 1017.3
20260830201733 9 352 0.0 0.0 0.03 1.09 1.09 95 1017.2
20260830201446 9 352 0.0 0.0 0.05 1.09 1.09 94 1017.0
20260830200729 9 352 0.0 0.0 0.05 1.09 1.09 94 1017.0
20260830200227 9 352 0.0 0.0 0.08 1.09 1.09 94 1016.9
20260830195731 9 352 0.0 0.0 0.08 1.09 1.09 94 1017.0
20260830195457 9 352 0.0 0.0 0.10 1.09 1.09 94 1017.0
20260830194728 9 352 0.0 0.0 0.13 1.09 1.09 94 1017.0
20260830194224 9 352 0.0 3.2 0.15 1.09 1.09 94 1016.9
20260830193721 9 352 0.0 3.2 0.15 1.09 1.09 94 1017.0
20260830193447 9 336 0.0 0.0 0.15 1.07 1.07 95 1016.9
20260830192719 9 336 0.0 3.2 0.18 1.07 1.07 94 1016.9
20260830192219 9 336 0.0 3.2 0.20 1.07 1.07 94 1017.0
20260830191719 9 355 0.0 0.0 0.23 1.07 1.07 94 1016.8
20260830191215 9 355 0.0 0.0 0.23 1.04 1.04 94 1016.8
20260830190709 9 355 0.0 0.0 0.25 1.04 1.04 94 1016.8
20260830190210 9 355 0.0 0.0 0.25 1.02 1.02 94 1016.9
20260830185703 9 355 0.0 1.6 0.28 1.02 1.02 94 1016.9
20260830185159 8 355 0.0 4.8 0.28 0.99 0.99 93 1016.9
20260830184922 9 350 0.0 6.4 0.28 0.97 0.97 94 1016.7
20260830184150 9 346 0.0 19.3 0.28 0.94 0.94 94 1016.7
20260830183908 9 238 3.2 19.3 0.33 0.94 0.94 94 1016.6